Date String (YYYY-MM-DD hh:mm:ss) UTC,Instrument flags,absolute air pressure of the measurement (hPa),sample flow rate (lpm),inlet stack bypass flow (lpm),air temperature of the measurement (°C),ambient temperature measured by the external sensor (°C),aerosol sample conditioner tube jacket temperature (°C),OPC LED temperature (°C),internal box temperature (°C),relative humidity of the measurement (%),span deviation,mass concentration of particles derived from Lorenz-Mie calculation of OPC scattering (μg/m³),mass concentration of particles derived from Lorenz-Mie calculation of OPC scattering (μg/m³),mass concentration of particles derived from Lorenz-Mie calculation of OPC scattering (μg/m³)
DateTimeUTC,F1_M11,P_M11,Q1_M11,Q2_M11,T1_M11,T2_M11,T3_M11,T4_M11,T5_M11,U1_M11,ZSPAN_M11,X0_M11,X2_M11,X1_M11
2024-03-06 21:00:00,SystemResetWarning,0819.3,4.99,000.00,022.6,021.9,000.0,030.6,024.2,09.3,0000.0,0005.65,0001.55,0000.86
2024-03-06 21:01:00,SystemResetWarning,0819.3,5.00,000.00,022.6,021.9,000.0,030.6,024.2,09.2,0000.0,0005.85,0001.56,0000.86
2024-03-06 21:02:00,SystemResetWarning,0819.3,5.00,000.00,022.6,021.9,000.0,030.6,024.2,09.3,0000.0,0005.99,0001.60,0000.85
2024-03-06 21:03:00,SystemResetWarning,0819.4,5.00,000.00,022.6,022.0,000.0,030.6,024.3,09.1,0000.0,0006.11,0001.64,0000.85
2024-03-06 21:04:00,SystemResetWarning,0819.5,5.00,000.00,022.6,022.0,000.0,030.7,024.3,08.9,0000.0,0006.07,0001.63,0000.85
2024-03-06 21:05:00,SystemResetWarning,0819.3,5.00,000.00,022.6,022.0,000.0,030.7,024.3,09.0,0000.0,0006.25,0001.65,0000.86
2024-03-06 21:06:00,SystemResetWarning,0819.4,5.00,000.00,022.6,022.0,000.0,030.7,024.3,09.2,0000.0,0005.17,0001.70,0000.89
2024-03-06 21:07:00,SystemResetWarning,0819.4,5.00,000.00,022.6,022.0,000.0,030.7,024.3,09.1,0000.0,0004.85,0001.75,0000.90
2024-03-06 21:08:00,SystemResetWarning,0819.4,5.01,000.00,022.6,022.0,000.0,030.7,024.3,09.0,0000.0,0004.78,0001.73,0000.89
2024-03-06 21:09:00,SystemResetWarning,0819.4,5.00,000.00,022.7,022.0,000.0,030.7,024.4,09.0,0000.0,0004.68,0001.76,0000.88
2024-03-06 21:10:00,SystemResetWarning,0819.5,5.00,000.00,022.7,022.0,000.0,030.7,024.4,08.9,0000.0,0004.44,0001.73,0000.87
2024-03-06 21:11:00,SystemResetWarning,0819.5,4.99,000.00,022.7,022.1,000.0,030.7,024.4,08.8,0000.0,0004.33,0001.74,0000.88
2024-03-06 21:12:00,SystemResetWarning,0819.5,4.99,000.00,022.7,022.1,000.0,030.7,024.4,09.1,0000.0,0005.17,0001.68,0000.88
2024-03-06 21:13:00,SystemResetWarning,0819.4,5.01,000.00,022.7,022.1,000.0,030.7,024.4,09.3,0000.0,0005.19,0001.59,0000.87
2024-03-06 21:14:00,SystemResetWarning,0819.4,5.01,000.00,022.7,022.1,000.0,030.7,024.4,09.1,0000.0,0005.12,0001.56,0000.86
2024-03-06 21:15:00,SystemResetWarning,0819.3,5.00,000.00,022.7,022.1,000.0,030.8,024.4,09.0,0000.0,0005.04,0001.57,0000.87
2024-03-06 21:16:00,SystemResetWarning,0819.3,5.00,000.00,022.7,022.1,000.0,030.8,024.4,09.0,0000.0,0004.70,0001.54,0000.85
2024-03-06 21:17:00,SystemResetWarning,0819.4,4.99,000.00,022.7,022.1,000.0,030.8,024.4,09.0,0000.0,0004.33,0001.49,0000.81
2024-03-06 21:18:00,SystemResetWarning,0819.4,5.00,000.00,022.7,022.1,000.0,030.8,024.4,09.0,0000.0,0004.17,0001.43,0000.79
2024-03-06 21:19:00,SystemResetWarning,0819.4,5.00,000.00,022.8,022.1,000.0,030.9,024.4,09.0,0000.0,0004.18,0001.47,0000.79
2024-03-06 21:20:00,SystemResetWarning,0819.5,5.00,000.00,022.8,022.2,000.0,030.9,024.5,09.1,0000.0,0004.11,0001.46,0000.80
2024-03-06 21:21:00,SystemResetWarning,0819.4,5.01,000.00,022.8,022.2,000.0,030.9,024.5,09.0,0000.0,0004.02,0001.43,0000.80
2024-03-06 21:22:00,SystemResetWarning,0819.5,5.01,000.00,022.8,022.2,000.0,030.9,024.6,08.9,0000.0,0004.15,0001.40,0000.80
2024-03-06 21:23:00,SystemResetWarning,0819.7,5.00,000.00,022.8,022.2,000.0,030.9,024.6,08.9,0000.0,0004.13,0001.42,0000.79
2024-03-06 21:24:00,SystemResetWarning,0819.5,5.01,000.00,022.8,022.3,000.0,031.0,024.6,09.0,0000.0,0003.41,0001.46,0000.79
2024-03-06 21:25:00,SystemResetWarning,0819.5,4.99,000.00,022.8,022.3,000.0,031.0,024.6,09.0,0000.0,0003.53,0001.47,0000.81
2024-03-06 21:26:00,SystemResetWarning,0819.5,5.00,000.00,022.8,022.3,000.0,031.0,024.7,09.0,0000.0,0003.48,0001.43,0000.80
2024-03-06 21:27:00,SystemResetWarning,0819.5,5.00,000.00,022.9,022.3,000.0,031.0,024.7,08.9,0000.0,0003.51,0001.44,0000.80
2024-03-06 21:28:00,SystemResetWarning,0819.4,5.00,000.00,022.9,022.3,000.0,031.0,024.7,08.7,0000.0,0003.46,0001.44,0000.81
2024-03-06 21:29:00,SystemResetWarning,0819.3,5.00,000.00,022.9,022.3,000.0,031.1,024.7,08.6,0000.0,0003.51,0001.48,0000.81
2024-03-06 21:30:00,SystemResetWarning,0819.3,5.00,000.00,022.9,022.3,000.0,031.1,024.7,08.7,0000.0,0003.59,0001.52,0000.81
2024-03-06 21:31:00,SystemResetWarning,0819.3,4.99,000.00,022.9,022.3,000.0,031.1,024.7,08.6,0000.0,0004.64,0001.53,0000.80
2024-03-06 21:32:00,SystemResetWarning,0819.3,4.99,000.00,022.9,022.3,000.0,031.1,024.7,08.7,0000.0,0004.77,0001.54,0000.80
2024-03-06 21:33:00,SystemResetWarning,0819.3,5.00,000.00,022.9,022.3,000.0,031.1,024.7,08.8,0000.0,0004.71,0001.59,0000.80
2024-03-06 21:34:00,SystemResetWarning,0819.3,4.99,000.00,022.9,022.2,000.0,031.2,024.6,08.9,0000.0,0004.24,0001.57,0000.80
2024-03-06 21:35:00,SystemResetWarning,0819.3,5.00,000.00,022.9,022.2,000.0,031.2,024.6,08.9,0000.0,0004.32,0001.58,0000.80
2024-03-06 21:36:00,SystemResetWarning,0819.3,5.01,000.00,022.9,022.2,000.0,031.2,024.6,08.9,0000.0,0004.31,0001.60,0000.81
2024-03-06 21:37:00,SystemResetWarning,0819.3,5.00,000.00,022.9,022.2,000.0,031.2,024.6,09.0,0000.0,0004.53,0001.70,0000.82
2024-03-06 21:38:00,SystemResetWarning,0819.4,5.01,000.00,022.9,022.2,000.0,031.2,024.6,08.9,0000.0,0004.47,0001.69,0000.82
2024-03-06 21:39:00,SystemResetWarning,0819.5,4.99,000.00,022.9,022.2,000.0,031.2,024.6,08.9,0000.0,0004.56,0001.74,0000.83
2024-03-06 21:40:00,SystemResetWarning,0819.5,5.00,000.00,022.9,022.2,000.0,031.2,024.6,09.0,0000.0,0004.48,0001.73,0000.83
2024-03-06 21:41:00,SystemResetWarning,0819.5,5.00,000.00,022.9,022.2,000.0,031.2,024.6,09.0,0000.0,0004.35,0001.67,0000.83
2024-03-06 21:42:00,SystemResetWarning,0819.5,5.00,000.00,022.9,022.2,000.0,031.2,024.6,09.1,0000.0,0003.67,0001.70,0000.84
2024-03-06 21:43:00,SystemResetWarning,0819.5,5.00,000.00,022.9,022.2,000.0,031.2,024.6,08.9,0000.0,0003.59,0001.74,0000.84
2024-03-06 21:44:00,SystemResetWarning,0819.4,5.00,000.00,022.9,022.2,000.0,031.2,024.6,09.0,0000.0,0003.48,0001.68,0000.83
2024-03-06 21:45:00,SystemResetWarning,0819.4,5.01,000.00,022.9,022.2,000.0,031.2,024.6,09.1,0000.0,0003.62,0001.69,0000.82
2024-03-06 21:46:00,SystemResetWarning,0819.3,5.00,000.00,022.9,022.2,000.0,031.2,024.6,09.0,0000.0,0003.55,0001.64,0000.81
2024-03-06 21:47:00,SystemResetWarning,0819.4,4.99,000.00,022.9,022.2,000.0,031.2,024.6,09.0,0000.0,0003.62,0001.62,0000.80
2024-03-06 21:48:00,SystemResetWarning,0819.4,4.99,000.00,022.9,022.1,000.0,031.2,024.6,09.0,0000.0,0004.18,0001.61,0000.78
2024-03-06 21:49:00,SystemResetWarning,0819.4,4.99,000.00,022.8,022.1,000.0,031.2,024.6,08.7,0000.0,0004.43,0001.66,0000.78
2024-03-06 21:50:00,SystemResetWarning,0819.4,5.00,000.00,022.8,022.1,000.0,031.2,024.6,08.7,0000.0,0004.44,0001.64,0000.77
2024-03-06 21:51:00,SystemResetWarning,0819.5,5.01,000.00,022.8,022.1,000.0,031.2,024.6,08.7,0000.0,0005.02,0001.60,0000.77
2024-03-06 21:52:00,SystemResetWarning,0819.5,5.00,000.00,022.9,022.1,000.0,031.2,024.6,08.8,0000.0,0005.29,0001.62,0000.78
2024-03-06 21:53:00,SystemResetWarning,0819.4,5.00,000.00,022.8,022.2,000.0,031.2,024.6,09.0,0000.0,0006.27,0001.64,0000.78
2024-03-06 21:54:00,SystemResetWarning,0819.3,5.01,000.00,022.9,022.2,000.0,031.2,024.6,08.9,0000.0,0007.21,0001.63,0000.79
2024-03-06 21:55:00,SystemResetWarning,0819.4,5.00,000.00,022.9,022.2,000.0,031.2,024.6,08.7,0000.0,0007.54,0001.65,0000.79
2024-03-06 21:56:00,SystemResetWarning,0819.5,4.99,000.00,022.9,022.1,000.0,031.2,024.6,08.7,0000.0,0007.66,0001.73,0000.81
2024-03-06 21:57:00,SystemResetWarning,0819.5,4.99,000.00,022.9,022.1,000.0,031.2,024.6,08.7,0000.0,0007.63,0001.73,0000.82
2024-03-06 21:58:00,SystemResetWarning,0819.5,5.00,000.00,022.9,022.1,000.0,031.2,024.6,08.9,0000.0,0007.60,0001.76,0000.83
2024-03-06 21:59:00,SystemResetWarning,0819.4,5.00,000.00,022.8,022.1,000.0,031.2,024.6,09.3,0000.0,0007.43,0001.74,0000.84
